| time (UTC) | temp F | wind direction | speed MPH | gust MPH | rain 1hr in | rain 24hr in | rain mn in | humidity % | barometer mb |
| 20260503190527 | 72 | 109 | 0.0 | 6.0 | 0.00 | 0.00 | 0.00 | 42 | 1013.3 |
| 20260503190030 | 72 | 105 | 0.0 | 3.0 | 0.00 | 0.00 | 0.00 | 43 | 1013.3 |
| 20260503185527 | 73 | 61 | 0.0 | 7.0 | 0.00 | 0.00 | 0.00 | 46 | 1013.5 |
| 20260503185025 | 73 | 82 | 1.0 | 7.0 | 0.00 | 0.00 | 0.00 | 46 | 1013.5 |
| 20260503184525 | 73 | 54 | 0.0 | 4.0 | 0.00 | 0.00 | 0.00 | 47 | 1013.5 |
| 20260503184025 | 73 | 110 | 1.0 | 4.0 | 0.00 | 0.00 | 0.00 | 47 | 1013.5 |
| 20260503183524 | 73 | 316 | 0.0 | 2.0 | 0.00 | 0.00 | 0.00 | 44 | 1013.5 |
| 20260503183035 | 72 | 159 | 0.0 | 3.0 | 0.00 | 0.00 | 0.00 | 51 | 1013.6 |
| 20260503182523 | 72 | 151 | 0.0 | 3.0 | 0.00 | 0.00 | 0.00 | 50 | 1013.6 |
| 20260503182021 | 72 | 112 | 0.0 | 3.0 | 0.00 | 0.00 | 0.00 | 46 | 1013.6 |
| 20260503181522 | 71 | 92 | 0.0 | 3.0 | 0.00 | 0.00 | 0.00 | 50 | 1013.6 |
| 20260503181020 | 71 | 104 | 0.0 | 1.0 | 0.00 | 0.00 | 0.00 | 51 | 1013.8 |
| 20260503180520 | 72 | 119 | 0.0 | 3.0 | 0.00 | 0.00 | 0.00 | 52 | 1014.0 |
| 20260503180020 | 70 | 119 | 0.0 | 3.0 | 0.00 | 0.00 | 0.00 | 49 | 1013.9 |
| 20260503175518 | 70 | 59 | 0.0 | 3.0 | 0.00 | 0.00 | 0.00 | 53 | 1014.0 |
| 20260503175020 | 70 | 314 | 0.0 | 3.0 | 0.00 | 0.00 | 0.00 | 52 | 1014.0 |
| 20260503174517 | 70 | 115 | 0.0 | 2.0 | 0.00 | 0.00 | 0.00 | 55 | 1013.9 |
| 20260503174016 | 69 | 107 | 0.0 | 2.0 | 0.00 | 0.00 | 0.00 | 54 | 1014.1 |
| 20260503173519 | 69 | 161 | 0.0 | 1.0 | 0.00 | 0.00 | 0.00 | 55 | 1014.2 |
| 20260503173017 | 68 | 159 | 0.0 | 4.0 | 0.00 | 0.00 | 0.00 | 53 | 1014.1 |
| 20260503172614 | 68 | 323 | 1.0 | 6.0 | 0.00 | 0.00 | 0.00 | 53 | 1014.1 |
| 20260503172014 | 68 | 103 | 1.0 | 6.0 | 0.00 | 0.00 | 0.00 | 55 | 1014.0 |
| 20260503171513 | 67 | 227 | 0.0 | 4.0 | 0.00 | 0.00 | 0.00 | 55 | 1014.1 |
| 20260503171011 | 66 | 255 | 0.0 | 4.0 | 0.00 | 0.00 | 0.00 | 56 | 1014.1 |
| 20260503170510 | 66 | 292 | 0.0 | 3.0 | 0.00 | 0.00 | 0.00 | 56 | 1014.1 |
| 20260503150552 | 57 | 319 | 2.0 | 8.0 | 0.00 | 0.00 | 0.00 | 74 | 1014.8 |
| 20260503131044 | 52 | 297 | 2.0 | 5.0 | 0.00 | 0.00 | 0.00 | 81 | 1014.8 |
| 20260503130543 | 52 | 306 | 1.0 | 5.0 | 0.00 | 0.00 | 0.00 | 81 | 1014.8 |
| 20260503110532 | 54 | 311 | 2.0 | 6.0 | 0.00 | 0.00 | 0.00 | 79 | 1015.1 |
| 20260503081511 | 57 | 315 | 2.0 | 12.0 | 0.00 | 0.00 | 0.00 | 73 | 1015.0 |
| 20260503081107 | 58 | 310 | 2.0 | 5.0 | 0.00 | 0.00 | 0.00 | 72 | 1015.0 |
| 20260503080506 | 58 | 322 | 2.0 | 9.0 | 0.00 | 0.00 | 0.00 | 72 | 1015.0 |
| 20260503072502 | 58 | 318 | 1.0 | 9.0 | 0.00 | 0.00 | 0.00 | 71 | 1015.0 |
| 20260503072100 | 59 | 284 | 2.0 | 9.0 | 0.00 | 0.00 | 0.00 | 70 | 1015.0 |
| 20260503071600 | 59 | 329 | 2.0 | 4.0 | 0.00 | 0.00 | 0.00 | 70 | 1015.1 |
| 20260503071058 | 59 | 338 | 1.0 | 8.0 | 0.00 | 0.00 | 0.00 | 69 | 1015.1 |
| 20260503070600 | 59 | 316 | 3.0 | 8.0 | 0.00 | 0.00 | 0.00 | 69 | 1015.3 |
| 20260503055053 | 62 | 317 | 1.0 | 4.0 | 0.00 | 0.00 | 0.00 | 64 | 1014.9 |
| 20260503054558 | 62 | 313 | 0.0 | 5.0 | 0.00 | 0.00 | 0.00 | 63 | 1014.9 |
| 20260503054053 | 62 | 338 | 1.0 | 5.0 | 0.00 | 0.00 | 0.00 | 63 | 1014.7 |
| 20260503053553 | 62 | 271 | 1.0 | 5.0 | 0.00 | 0.00 | 0.00 | 62 | 1014.8 |
| 20260503053053 | 62 | 306 | 0.0 | 5.0 | 0.00 | 0.00 | 0.00 | 62 | 1014.8 |
| 20260503052553 | 63 | 296 | 1.0 | 8.0 | 0.00 | 0.00 | 0.00 | 62 | 1014.9 |
| 20260503052053 | 63 | 246 | 1.0 | 5.0 | 0.00 | 0.00 | 0.00 | 61 | 1014.8 |
| 20260503051553 | 63 | 293 | 1.0 | 3.0 | 0.00 | 0.00 | 0.00 | 61 | 1014.9 |
| 20260503051052 | 63 | 319 | 1.0 | 4.0 | 0.00 | 0.00 | 0.00 | 60 | 1014.9 |
| 20260503050552 | 64 | 315 | 1.0 | 4.0 | 0.00 | 0.00 | 0.00 | 59 | 1014.8 |
| 20260503050052 | 64 | 301 | 1.0 | 5.0 | 0.00 | 0.00 | 0.00 | 59 | 1014.7 |
| 20260503045552 | 64 | 262 | 1.0 | 5.0 | 0.00 | 0.00 | 0.00 | 58 | 1014.7 |
| 20260503045051 | 64 | 313 | 1.0 | 4.0 | 0.00 | 0.00 | 0.00 | 58 | 1014.7 |
| 20260503044554 | 65 | 307 | 1.0 | 6.0 | 0.00 | 0.00 | 0.00 | 57 | 1014.7 |
| 20260503044051 | 65 | 238 | 0.0 | 6.0 | 0.00 | 0.00 | 0.00 | 56 | 1014.7 |
| 20260503043551 | 65 | 314 | 1.0 | 6.0 | 0.00 | 0.00 | 0.00 | 56 | 1014.6 |
| 20260503043051 | 66 | 309 | 1.0 | 2.0 | 0.00 | 0.00 | 0.00 | 56 | 1014.5 |
| 20260503042551 | 66 | 311 | 0.0 | 3.0 | 0.00 | 0.00 | 0.00 | 55 | 1014.6 |
| 20260503042053 | 66 | 312 | 0.0 | 4.0 | 0.00 | 0.00 | 0.00 | 54 | 1014.5 |
| 20260503041551 | 66 | 313 | 0.0 | 4.0 | 0.00 | 0.00 | 0.00 | 54 | 1014.3 |
| 20260503041051 | 67 | 300 | 0.0 | 5.0 | 0.00 | 0.00 | 0.00 | 54 | 1014.3 |
| 20260503040550 | 67 | 328 | 1.0 | 6.0 | 0.00 | 0.00 | 0.00 | 53 | 1014.4 |
| 20260503040050 | 67 | 292 | 1.0 | 8.0 | 0.00 | 0.00 | 0.00 | 53 | 1014.2 |
| 20260503035551 | 67 | 265 | 1.0 | 8.0 | 0.00 | 0.00 | 0.00 | 52 | 1014.2 |
| 20260503035050 | 67 | 306 | 0.0 | 4.0 | 0.00 | 0.00 | 0.00 | 53 | 1014.2 |
| 20260503034551 | 68 | 279 | 1.0 | 5.0 | 0.00 | 0.00 | 0.00 | 52 | 1014.1 |
| 20260503034050 | 68 | 277 | 1.0 | 8.0 | 0.00 | 0.00 | 0.00 | 51 | 1014.1 |
| 20260503033549 | 68 | 320 | 1.0 | 8.0 | 0.00 | 0.00 | 0.00 | 51 | 1014.1 |
| 20260503033103 | 69 | 306 | 1.0 | 5.0 | 0.00 | 0.00 | 0.00 | 51 | 1014.1 |
| 20260503032549 | 69 | 321 | 1.0 | 5.0 | 0.00 | 0.00 | 0.00 | 50 | 1014.1 |
| 20260503032051 | 69 | 290 | 0.0 | 4.0 | 0.00 | 0.00 | 0.00 | 49 | 1014.1 |
| 20260503031556 | 70 | 302 | 0.0 | 4.0 | 0.00 | 0.00 | 0.00 | 49 | 1014.1 |
| 20260503031049 | 70 | 317 | 1.0 | 6.0 | 0.00 | 0.00 | 0.00 | 49 | 1013.9 |
| 20260503030552 | 70 | 312 | 2.0 | 6.0 | 0.00 | 0.00 | 0.00 | 48 | 1013.9 |
| 20260503030052 | 70 | 295 | 1.0 | 8.0 | 0.00 | 0.00 | 0.00 | 48 | 1014.0 |
| 20260503025548 | 71 | 344 | 1.0 | 5.0 | 0.00 | 0.00 | 0.00 | 49 | 1013.9 |
| 20260503025047 | 71 | 313 | 2.0 | 5.0 | 0.00 | 0.00 | 0.00 | 47 | 1013.7 |
| 20260503024607 | 71 | 309 | 1.0 | 4.0 | 0.00 | 0.00 | 0.00 | 48 | 1013.7 |
| 20260503024047 | 72 | 277 | 1.0 | 8.0 | 0.00 | 0.00 | 0.00 | 46 | 1013.8 |
| 20260503023549 | 72 | 292 | 1.0 | 11.0 | 0.00 | 0.00 | 0.00 | 46 | 1013.9 |
| 20260503023046 | 72 | 318 | 0.0 | 10.0 | 0.00 | 0.00 | 0.00 | 46 | 1013.9 |
| 20260503022547 | 72 | 304 | 1.0 | 10.0 | 0.00 | 0.00 | 0.00 | 46 | 1014.0 |
| 20260503022048 | 73 | 20 | 1.0 | 9.0 | 0.00 | 0.00 | 0.00 | 45 | 1013.9 |
| 20260503021546 | 73 | 257 | 0.0 | 9.0 | 0.00 | 0.00 | 0.00 | 45 | 1014.0 |
| 20260503021045 | 73 | 318 | 1.0 | 8.0 | 0.00 | 0.00 | 0.00 | 45 | 1014.1 |
| 20260503020545 | 73 | 315 | 3.0 | 10.0 | 0.00 | 0.00 | 0.00 | 44 | 1014.1 |
| 20260503020048 | 73 | 304 | 1.0 | 5.0 | 0.00 | 0.00 | 0.00 | 44 | 1014.1 |
| 20260503015548 | 74 | 317 | 3.0 | 11.0 | 0.00 | 0.00 | 0.00 | 43 | 1014.2 |
| 20260503015043 | 74 | 333 | 1.0 | 11.0 | 0.00 | 0.00 | 0.00 | 43 | 1014.2 |
| 20260503014544 | 74 | 252 | 2.0 | 8.0 | 0.00 | 0.00 | 0.00 | 42 | 1014.1 |
| 20260503014043 | 75 | 306 | 1.0 | 8.0 | 0.00 | 0.00 | 0.00 | 42 | 1014.1 |
| 20260503013546 | 75 | 313 | 3.0 | 11.0 | 0.00 | 0.00 | 0.00 | 41 | 1014.1 |
| 20260503013043 | 75 | 277 | 2.0 | 11.0 | 0.00 | 0.00 | 0.00 | 40 | 1014.1 |
| 20260503012549 | 76 | 314 | 3.0 | 13.0 | 0.00 | 0.00 | 0.00 | 41 | 1014.2 |
| 20260503012041 | 76 | 307 | 3.0 | 13.0 | 0.00 | 0.00 | 0.00 | 39 | 1014.3 |
| 20260503011544 | 76 | 306 | 1.0 | 8.0 | 0.00 | 0.00 | 0.00 | 39 | 1014.4 |
| 20260503011040 | 76 | 305 | 1.0 | 11.0 | 0.00 | 0.00 | 0.00 | 40 | 1014.4 |
| 20260503010542 | 76 | 315 | 1.0 | 6.0 | 0.00 | 0.00 | 0.00 | 40 | 1014.4 |
| 20260503010040 | 76 | 286 | 1.0 | 10.0 | 0.00 | 0.00 | 0.00 | 39 | 1014.4 |
| 20260503005540 | 77 | 285 | 1.0 | 7.0 | 0.00 | 0.00 | 0.00 | 39 | 1014.4 |
| 20260503005040 | 77 | 294 | 2.0 | 7.0 | 0.00 | 0.00 | 0.00 | 38 | 1014.3 |
| 20260503004543 | 77 | 295 | 1.0 | 11.0 | 0.00 | 0.00 | 0.00 | 38 | 1014.5 |
| 20260503004039 | 77 | 320 | 1.0 | 11.0 | 0.00 | 0.00 | 0.00 | 35 | 1014.5 |
| 20260503003543 | 77 | 355 | 0.0 | 6.0 | 0.00 | 0.00 | 0.00 | 37 | 1014.4 |
| 20260503003039 | 77 | 253 | 0.0 | 9.0 | 0.00 | 0.00 | 0.00 | 37 | 1014.5 |
| 20260503002539 | 77 | 304 | 1.0 | 10.0 | 0.00 | 0.00 | 0.00 | 36 | 1014.4 |
| 20260503002038 | 78 | 28 | 1.0 | 10.0 | 0.00 | 0.00 | 0.00 | 36 | 1014.4 |
| 20260503001539 | 78 | 299 | 1.0 | 9.0 | 0.00 | 0.00 | 0.00 | 37 | 1014.5 |
| 20260503001037 | 78 | 288 | 2.0 | 9.0 | 0.00 | 0.00 | 0.00 | 37 | 1014.5 |
| 20260503000537 | 78 | 147 | 0.0 | 5.0 | 0.00 | 0.00 | 0.00 | 37 | 1014.5 |
| 20260503000036 | 79 | 19 | 0.0 | 6.0 | 0.00 | 0.00 | 0.00 | 36 | 1014.5 |
| 20260502235535 | 79 | 350 | 2.0 | 6.0 | 0.00 | 0.00 | 0.00 | 37 | 1014.7 |
| 20260502235035 | 80 | 296 | 2.0 | 7.0 | 0.00 | 0.00 | 0.00 | 37 | 1014.7 |
| 20260502234535 | 80 | 342 | 0.0 | 2.0 | 0.00 | 0.00 | 0.00 | 36 | 1014.8 |
| 20260502234035 | 80 | 348 | 0.0 | 6.0 | 0.00 | 0.00 | 0.00 | 37 | 1014.7 |
| 20260502233534 | 79 | 340 | 0.0 | 6.0 | 0.00 | 0.00 | 0.00 | 36 | 1014.8 |
| 20260502233042 | 80 | 52 | 1.0 | 5.0 | 0.00 | 0.00 | 0.00 | 35 | 1014.8 |
| 20260502232534 | 80 | 290 | 1.0 | 5.0 | 0.00 | 0.00 | 0.00 | 36 | 1015.0 |
| 20260502232032 | 80 | 223 | 0.0 | 5.0 | 0.00 | 0.00 | 0.00 | 36 | 1015.0 |
| 20260502231549 | 80 | 302 | 1.0 | 5.0 | 0.00 | 0.00 | 0.00 | 37 | 1015.0 |
| 20260502231031 | 80 | 311 | 1.0 | 4.0 | 0.00 | 0.00 | 0.00 | 37 | 1015.1 |
| 20260502230531 | 79 | 96 | 0.0 | 8.0 | 0.00 | 0.00 | 0.00 | 39 | 1015.1 |
| 20260502230030 | 80 | 49 | 0.0 | 8.0 | 0.00 | 0.00 | 0.00 | 36 | 1015.3 |
| 20260502225528 | 81 | 338 | 0.0 | 4.0 | 0.00 | 0.00 | 0.00 | 39 | 1015.3 |
| 20260502225028 | 80 | 236 | 0.0 | 4.0 | 0.00 | 0.00 | 0.00 | 38 | 1015.3 |
| 20260502224530 | 80 | 104 | 0.0 | 3.0 | 0.00 | 0.00 | 0.00 | 39 | 1015.4 |
| 20260502224026 | 80 | 26 | 0.0 | 3.0 | 0.00 | 0.00 | 0.00 | 37 | 1015.6 |
| 20260502223525 | 80 | 211 | 0.0 | 3.0 | 0.00 | 0.00 | 0.00 | 37 | 1015.5 |
| 20260502223025 | 80 | 314 | 0.0 | 4.0 | 0.00 | 0.00 | 0.00 | 42 | 1015.6 |
| 20260502222525 | 79 | 21 | 0.0 | 7.0 | 0.00 | 0.00 | 0.00 | 41 | 1015.7 |
| 20260502222023 | 79 | 111 | 0.0 | 7.0 | 0.00 | 0.00 | 0.00 | 41 | 1015.8 |
| 20260502221523 | 79 | 140 | 0.0 | 5.0 | 0.00 | 0.00 | 0.00 | 41 | 1015.9 |
| 20260502221023 | 80 | 155 | 0.0 | 5.0 | 0.00 | 0.00 | 0.00 | 39 | 1016.0 |
| 20260502220522 | 79 | 306 | 0.0 | 5.0 | 0.00 | 0.00 | 0.00 | 40 | 1016.0 |
| 20260502220031 | 79 | 355 | 0.0 | 5.0 | 0.00 | 0.00 | 0.00 | 39 | 1016.2 |
| 20260502215520 | 79 | 320 | 0.0 | 8.0 | 0.00 | 0.00 | 0.00 | 39 | 1016.3 |
| 20260502215020 | 78 | 236 | 3.0 | 9.0 | 0.00 | 0.00 | 0.00 | 42 | 1016.4 |
| 20260502214518 | 79 | 99 | 0.0 | 6.0 | 0.00 | 0.00 | 0.00 | 41 | 1016.2 |
| 20260502214017 | 78 | 91 | 0.0 | 3.0 | 0.00 | 0.00 | 0.00 | 42 | 1016.4 |
| 20260502213520 | 78 | 140 | 0.0 | 3.0 | 0.00 | 0.00 | 0.00 | 45 | 1016.4 |
| 20260502213017 | 79 | 138 | 1.0 | 2.0 | 0.00 | 0.00 | 0.00 | 46 | 1016.3 |
| 20260502212515 | 77 | 127 | 0.0 | 4.0 | 0.00 | 0.00 | 0.00 | 49 | 1016.4 |
| 20260502212014 | 76 | 125 | 0.0 | 5.0 | 0.00 | 0.00 | 0.00 | 46 | 1016.4 |
| 20260502211520 | 76 | 215 | 0.0 | 4.0 | 0.00 | 0.00 | 0.00 | 41 | 1016.4 |
| 20260502211017 | 75 | 202 | 0.0 | 4.0 | 0.00 | 0.00 | 0.00 | 45 | 1016.5 |
| 20260502210511 | 76 | 207 | 0.0 | 4.0 | 0.00 | 0.00 | 0.00 | 42 | 1016.6 |
| 20260502210009 | 76 | 261 | 0.0 | 3.0 | 0.00 | 0.00 | 0.00 | 48 | 1016.7 |
| 20260502205510 | 75 | 171 | 0.0 | 4.0 | 0.00 | 0.00 | 0.00 | 48 | 1016.8 |
| 20260502205008 | 75 | 224 | 0.0 | 7.0 | 0.00 | 0.00 | 0.00 | 47 | 1016.8 |
| 20260502204508 | 74 | 123 | 1.0 | 7.0 | 0.00 | 0.00 | 0.00 | 47 | 1016.8 |
| 20260502204008 | 76 | 146 | 0.0 | 3.0 | 0.00 | 0.00 | 0.00 | 49 | 1016.8 |
| 20260502203506 | 74 | 269 | 0.0 | 6.0 | 0.00 | 0.00 | 0.00 | 49 | 1016.8 |
| 20260502203006 | 74 | 224 | 2.0 | 6.0 | 0.00 | 0.00 | 0.00 | 48 | 1016.7 |
| 20260502202504 | 73 | 89 | 0.0 | 3.0 | 0.00 | 0.00 | 0.00 | 50 | 1016.8 |
| 20260502202003 | 72 | 89 | 0.0 | 7.0 | 0.00 | 0.00 | 0.00 | 49 | 1016.8 |
| 20260502201502 | 73 | 306 | 0.0 | 7.0 | 0.00 | 0.00 | 0.00 | 48 | 1016.8 |
| 20260502201003 | 72 | 94 | 0.0 | 3.0 | 0.00 | 0.00 | 0.00 | 53 | 1016.9 |
| 20260502200600 | 71 | 94 | 0.0 | 3.0 | 0.00 | 0.00 | 0.00 | 52 | 1016.9 |
| 20260502200059 | 71 | 327 | 0.0 | 5.0 | 0.00 | 0.00 | 0.00 | 55 | 1017.0 |
| 20260502195602 | 70 | 112 | 1.0 | 7.0 | 0.00 | 0.00 | 0.00 | 55 | 1017.0 |
| 20260502195059 | 70 | 250 | 1.0 | 7.0 | 0.00 | 0.00 | 0.00 | 53 | 1017.1 |
| 20260502194557 | 70 | 254 | 0.0 | 5.0 | 0.00 | 0.00 | 0.00 | 53 | 1017.1 |
| 20260502194055 | 69 | 232 | 2.0 | 8.0 | 0.00 | 0.00 | 0.00 | 54 | 1017.0 |
| 20260502193555 | 69 | 355 | 2.0 | 7.0 | 0.00 | 0.00 | 0.00 | 54 | 1017.1 |
| 20260502193054 | 69 | 344 | 2.0 | 6.0 | 0.00 | 0.00 | 0.00 | 55 | 1017.1 |
| 20260502192553 | 68 | 5 | 0.0 | 7.0 | 0.00 | 0.00 | 0.00 | 56 | 1017.2 |
| 20260502192053 | 68 | 251 | 3.0 | 7.0 | 0.00 | 0.00 | 0.00 | 56 | 1017.3 |
| 20260502191553 | 68 | 326 | 1.0 | 7.0 | 0.00 | 0.00 | 0.00 | 58 | 1017.4 |
| 20260502191052 | 68 | 333 | 2.0 | 7.0 | 0.00 | 0.00 | 0.00 | 56 | 1017.3 |